{"data":{"norad_id":53401,"intl_designator":"2022-097P","name":"STARLINK-4525","alt_names":[],"object_type":"PAYLOAD","status":"ACTIVE","operator":null,"country":"US","launch_date":"2022-08-10","launch_site_code":"AFETR","launch_vehicle":null,"mission":null,"orbit_class":"UNKNOWN","rcs_meters":null,"size_class":null,"mass_kg":null,"dimensions":null,"purposes":["comms"],"wikipedia_slug":null,"has_3d_model":false,"image_url":null,"decayed_at":null,"tle_current":{"epoch":"2026-09-20T04:03:54.940032Z","epoch_age_seconds":104010,"freshness":"FRESH","line1":"1 53401U 22097P   26263.16938588  .00000768  00000+0  34672-4 0  9996","line2":"2 53401  53.1606 323.4662 0001300  81.4951 278.6198 15.33551460227975","mean_motion":15.3355146,"eccentricity":0.00013,"inclination_deg":53.1606,"raan_deg":323.4662,"arg_perigee_deg":81.4951,"mean_anomaly_deg":278.6198,"bstar":3.4672e-5,"rev_number":22797,"period_min":93.89968563559,"perigee_km":464.33680549584,"apogee_km":466.11607999095,"semimajor_km":6843.3634427434,"source":"CELESTRAK","updated_at":"2026-09-20T09:00:40.225662Z"}}}